Regional Weather Roundup
Issued by NWS

Home | Current Version | Previous Version | Graphics & Text | Print | Product List | Glossary On
Versions: 1 2 3 4 5 6 7 8 9 10 11 12 13 14 15 16 17 18 19 20 21 22 23 24 25 26 27 28 29 30 31 32 33 34 35 36 37 38 39 40 41 42 43 44 45 46 47 48 49
000
ASUS45 KBOI 061910
RWRID

IDAHO REGIONAL WEATHER ROUNDUP
NATIONAL WEATHER SERVICE BOISE ID
1200 PM MST SAT FEB 06 2016

NOTE: "FAIR" INDICATES FEW OR NO CLOUDS BELOW 12000 FEET
WITH NO SIGNIFICANT WEATHER AND/OR OBSTRUCTIONS TO VISIBILITY

IDZ012-014-062000-
SOUTHWEST IDAHO


CITY           SKY/WX    TMP DP  RH WIND       PRES   REMARKS
BOISE          CLOUDY    40  31  70 NW6       30.47R
CALDWELL       CLOUDY    38  28  67 S10       30.49F WCI  31
MOUNTAIN HOME  CLOUDY    37  35  91 SE15      30.46F WCI  28
$$

IDZ016-017-062000-
SOUTHCENTRAL IDAHO


CITY           SKY/WX    TMP DP  RH WIND       PRES   REMARKS
BURLEY         CLOUDY    42  27  55 SW12      30.44S
JEROME         CLOUDY    31  25  78 NE9       30.46S WCI  23
TWIN FALLS     CLOUDY    34  27  75 E6        30.46R WCI  29
$$

IDZ019>023-062000-
SOUTHEAST IDAHO


CITY           SKY/WX    TMP DP  RH WIND       PRES   REMARKS
IDAHO FALLS    CLOUDY    21  18  88 CALM      30.43F
POCATELLO      CLOUDY    29  22  75 NE7       30.44F WCI  22
REXBURG        CLOUDY    26  21  81 CALM      30.42F
$$

IDZ006-010-011-018-031-032-062000-
CENTRAL IDAHO MOUNTAINS


CITY           SKY/WX    TMP DP  RH WIND       PRES   REMARKS
MCCALL         CLOUDY    33  23  66 NW5       30.38R WCI  29
HAILEY         CLOUDY    28  19  69 NW3       30.43F
STANLEY          N/A     37  20  50 S12       30.36F WCI  29
SALMON         CLOUDY    23  18  80 N8        30.31F WCI  14
CHALLIS        CLOUDY    25  16  68 NW5       30.32S WCI  19
$$

IDZ002-004-006-007-026-062000-
NORTHERN IDAHO


CITY           SKY/WX    TMP DP  RH WIND       PRES   REMARKS
LEWISTON       CLOUDY    49  29  46 CALM      30.41R
LOWELL           N/A     40  37  89 CALM      30.45R
COEUR D`ALENE  CLOUDY    39  32  75 SW13      30.33R WCI  32
MULLAN PASS    CLOUDY    23  21  92 VRB7      30.21R WCI  15
$$



USA.gov is the U.S. government's official web portal to all federal, state and local government web resources and services.